Temperature
9 11 11 10 10 10 9 9 10 11 10 9 10 10 11 11 10 10 10 10 10 9 9 8 8 8 8 8 8 8 8 8 8 8 8 9 9 9 9 9 9 9 10 10
10 10 9 9 9 8 9 9 10 11 9 9 9 10 11 11 10 10 10 10 9 9 9 8 8 7 7 7 7 7 8 8 8 8 8 8 8 9 9 9 9 9 9 9
11 10 9 8 9 9 9 9 9 9 9 9 8 11 11 11 10 9 9 9 9 9 8 8 7 7 7 7 7 7 7 7 8 8 8 8 8 8 8 8 8 9 8 8
9 8 8 8 9 8 10 9 8 8 8 10 8 11 12 11 10 10 10 9 9 8 8 7 7 7 7 7 7 7 7 7 7 7 7 7 7 8 8 8 8 8 8 8
9 8 8 9 9 8 9 8 7 7 8 8 9 9 13 10 10 11 10 9 9 8 8 7 7 7 6 6 6 7 7 7 7 7 7 7 7 7 8 8 8 8 8 8
8 7 8 8 8 7 7 8 7 7 8 9 9 9 12 11 11 10 10 9 8 8 7 7 7 7 6 6 6 6 6 7 7 7 6 7 7 7 7 7 7 7 7 8
9 8 7 7 8 8 8 9 10 10 10 11 9 8 11 11 10 10 9 9 8 7 7 7 7 6 6 6 6 6 6 6 6 6 6 6 6 7 7 7 7 7 7 7
10 10 8 7 8 8 8 8 9 11 12 12 9 9 11 10 10 9 9 8 8 7 7 7 6 6 6 6 6 6 6 6 6 6 6 6 6 6 7 7 6 7 7 7
9 9 7 6 6 7 8 8 7 8 7 8 10 11 11 11 10 10 9 9 8 7 7 6 6 6 6 6 5 5 5 5 6 6 6 6 6 6 6 6 6 6 6 7
7 7 7 6 6 6 7 7 7 7 8 10 11 10 11 10 10 10 10 9 8 7 6 6 6 6 6 5 5 5 5 5 5 5 5 6 6 6 6 6 6 6 6 6
6 7 7 7 7 7 6 6 7 7 7 9 11 12 11 10 10 9 9 9 8 7 6 6 6 6 5 5 5 5 5 5 5 5 5 5 5 5 5 5 5 5 6 6
6 7 7 8 6 6 7 7 7 7 7 7 8 10 11 10 9 9 9 8 7 7 6 6 5 5 5 5 5 5 5 5 5 5 5 5 5 5 5 5 5 5 5 6
5 5 7 8 6 5 5 5 6 6 6 7 8 10 10 9 9 8 8 7 7 6 6 5 5 5 5 5 4 4 5 5 5 5 5 5 5 5 5 5 5 5 5 5
6 5 7 9 9 6 5 5 5 5 6 7 8 9 10 9 9 9 8 7 7 6 5 5 5 4 4 4 4 4 4 4 4 4 4 4 4 4 4 4 4 5 5 5
5 5 5 6 6 6 6 6 5 5 6 7 8 8 9 9 9 8 7 6 6 6 5 4 4 4 4 4 4 4 4 4 4 4 4 4 4 4 4 4 4 4 4 4
4 4 4 5 5 5 5 6 6 5 6 6 7 7 9 8 7 7 7 6 5 5 4 4 4 4 4 4 4 4 4 4 4 4 4 4 4 4 4 4 4 4 4 4
4 3 4 6 5 5 6 6 6 6 6 6 6 8 8 8 7 7 6 5 5 4 4 4 4 4 3 3 3 3 3 3 4 3 3 3 3 4 4 3 3 4 4 4
4 3 4 5 5 6 9 7 7 6 6 6 6 7 7 7 6 6 5 5 5 4 4 4 3 3 3 3 3 3 3 3 3 3 3 3 3 3 3 3 3 3 3 3
4 4 4 4 5 7 8 7 6 6 6 7 6 7 7 6 5 6 5 5 4 4 4 3 3 3 3 3 3 3 3 3 3 3 3 3 3 3 3 3 3 3 3 3
3 4 4 4 5 7 9 6 5 6 6 7 6 6 6 5 6 7 5 4 4 4 3 3 3 3 3 3 3 3 3 3 2 2 2 2 2 2 2 2 2 2 2 3
2 3 3 4 5 7 8 5 5 6 8 7 6 6 5 5 6 5 4 4 4 3 3 3 3 3 3 3 3 3 2 2 2 2 2 2 2 2 2 2 2 2 2 2
4 4 4 4 4 6 6 4 6 7 6 6 5 5 5 4 4 4 3 3 3 3 3 3 3 3 3 2 2 2 2 2 2 2 2 2 2 1 1 1 2 2 2 2
5 6 6 6 8 8 5 5 5 5 5 5 5 4 4 3 3 3 3 3 2 2 2 2 2 2 2 2 2 2 2 2 2 1 1 1 1 1 1 1 1 1 1 2
5 5 5 5 6 6 4 5 4 4 4 4 4 4 3 3 3 2 2 2 2 2 2 2 2 2 2 2 1 1 1 1 1 1 1 1 1 1 1 1 1 1 1 1
6 3 4 5 6 5 4 4 4 4 4 4 3 3 3 2 2 2 2 2 2 2 2 1 1 1 1 1 1 1 1 1 0 0 0 0 0 0 0 0 0 0 1 1
4 4 5 6 6 5 5 5 4 4 3 3 3 2 2 2 2 2 1 1 1 1 1 1 1 1 0 0 0 0 0 -0 -0 -0 -0 -0 -0 -0 -0 -0 0 0 1 1
Wind_Speed
0 2 1 1 1 3 4 7 10 9 7 8 13 16 15 11 8 7 5 5 6 7 8 8 9 9 8 8 8 8 8 6 5 5 5 5 6 5 6 7 8 9 9 9
3 3 3 2 2 4 5 8 9 9 6 7 12 16 12 7 5 4 5 5 6 7 8 9 10 9 9 9 8 9 8 7 7 6 6 6 6 6 6 6 7 8 9 9
4 1 1 3 3 4 6 6 8 10 12 7 9 8 6 4 4 5 5 6 6 7 9 10 10 9 10 10 9 8 8 8 8 7 6 6 5 5 6 7 7 8 9 9
3 2 3 4 4 4 5 4 8 10 9 5 4 5 5 5 6 5 5 5 6 8 10 11 11 10 10 10 10 9 9 8 8 7 7 8 8 8 8 7 7 8 10 10
2 2 3 4 4 4 4 6 8 7 6 6 4 5 5 3 6 5 5 5 7 8 10 11 10 10 10 10 9 9 8 9 8 8 8 9 9 9 8 8 9 9 9 10
3 2 3 3 3 3 5 5 3 3 3 4 3 4 5 3 5 5 5 6 8 9 10 10 10 10 10 10 9 9 9 9 8 8 9 9 10 10 9 9 9 8 7 8
2 3 2 2 2 2 2 4 3 2 2 3 0 4 7 3 4 5 6 7 8 9 10 11 11 11 10 10 10 9 10 10 9 8 9 9 9 10 9 9 9 8 7 7
3 3 3 2 2 2 1 2 2 4 4 4 2 5 5 4 4 5 6 7 9 10 10 11 11 10 10 10 10 10 10 10 9 9 9 9 9 7 7 8 7 8 7 8
3 2 2 1 1 2 1 1 1 2 3 5 5 6 7 4 5 7 7 8 9 9 10 11 11 11 10 10 10 10 10 10 9 9 9 8 8 7 7 7 7 7 7 8
2 3 2 1 2 1 1 2 2 2 3 5 5 6 4 4 5 6 8 9 10 11 11 12 11 11 10 9 9 9 10 10 9 9 7 5 6 7 7 6 7 8 8 8
3 3 2 3 5 4 4 3 3 2 3 4 5 5 2 4 5 7 9 10 10 11 12 12 11 11 10 10 9 8 8 8 7 6 6 5 5 5 6 6 7 8 8 7
4 3 4 3 1 2 5 5 5 3 4 4 5 7 2 4 7 8 10 11 12 12 13 12 12 12 11 10 9 9 8 8 7 6 5 5 5 5 5 5 6 7 7 6
6 4 2 2 3 3 4 5 6 4 3 5 6 7 2 6 8 9 11 13 13 13 13 12 12 11 11 10 9 9 8 8 7 6 5 5 5 4 4 5 5 6 6 6
5 5 7 7 3 3 5 7 9 7 6 8 11 14 13 12 12 14 14 14 14 13 12 12 12 11 11 10 9 9 8 8 7 6 5 5 5 5 4 4 5 5 4 4
5 6 8 11 10 8 10 12 13 15 14 11 13 16 18 16 15 15 14 13 13 12 11 12 12 11 11 10 9 8 8 8 7 6 5 6 6 5 4 3 3 3 3 4
6 5 4 8 9 11 14 17 18 18 17 19 21 21 18 16 14 13 12 11 11 11 11 11 11 11 10 10 9 8 8 8 6 5 5 6 5 4 3 3 3 3 3 4
7 5 4 6 5 7 12 14 17 14 14 13 16 15 13 12 11 11 10 10 11 12 11 11 11 10 10 9 7 8 8 7 6 5 5 5 5 5 4 3 3 3 4 4
9 7 4 5 4 9 5 3 9 13 15 16 15 14 13 12 11 11 10 10 11 11 10 10 10 10 9 8 7 8 8 7 6 5 5 5 5 5 5 4 3 4 4 4
10 8 5 4 7 11 9 5 7 9 10 13 15 15 14 11 10 9 8 9 10 11 10 10 10 9 8 8 8 8 7 6 6 6 6 5 5 6 5 5 5 5 5 4
9 8 7 6 7 8 4 4 5 4 8 7 10 11 10 7 8 9 8 9 10 10 9 9 9 9 8 8 8 7 6 7 7 7 6 6 6 6 6 6 6 5 5 5
9 9 12 12 11 10 4 6 8 5 5 3 6 7 6 7 8 9 9 9 9 10 9 9 8 8 8 8 7 7 7 7 7 7 7 6 6 6 6 6 6 6 5 5
12 10 11 10 11 11 7 9 9 6 1 3 5 6 7 9 10 10 10 10 10 10 9 9 8 8 8 7 7 7 7 8 7 7 7 6 6 6 5 6 6 6 5 5
12 12 8 11 10 3 11 9 7 3 4 4 5 6 7 9 10 10 10 10 10 10 9 8 8 8 7 7 6 8 8 7 7 7 7 6 6 5 5 6 6 5 5 4
9 9 8 10 12 9 8 9 7 7 7 7 6 7 7 10 11 11 10 9 9 9 8 7 7 8 8 7 7 7 7 6 6 7 7 6 6 6 6 5 5 5 5 4
10 10 9 12 11 8 9 11 10 8 8 8 8 8 9 10 10 10 10 9 9 8 7 7 7 8 8 7 7 7 6 6 6 7 7 6 5 5 5 5 5 5 5 5
10 11 11 11 9 8 7 7 8 9 9 9 8 9 8 8 10 9 9 9 8 8 7 7 8 8 8 7 7 6 6 6 6 6 6 6 5 5 5 5 5 5 6 7
Wind_Direction
193 200 210 250 250 263 274 276 285 289 299 294 276 279 284 284 275 280 288 296 303 309 316 317 312 308 303 298 299 294 289 283 278 273 268 262 256 242 234 233 229 218 215 213
191 216 236 249 247 255 261 275 289 293 299 295 288 283 277 265 263 275 284 296 305 313 320 322 319 317 310 308 301 294 285 280 275 272 265 256 256 248 241 239 233 222 217 215
223 173 202 235 254 271 262 264 290 299 309 275 292 275 230 235 258 268 276 289 300 310 316 319 318 315 312 308 304 298 287 281 277 274 268 264 260 251 244 239 237 228 222 221
231 228 236 246 257 274 278 270 284 293 302 296 314 289 235 230 253 258 267 282 299 310 314 315 313 312 308 306 304 295 287 283 279 273 264 258 252 253 248 242 239 234 226 223
212 213 237 250 268 265 279 300 285 278 272 281 258 266 261 215 246 257 278 297 308 314 316 314 312 309 307 308 308 300 297 289 282 270 262 256 251 255 251 246 241 236 231 226
242 236 252 267 282 258 283 281 253 226 242 264 267 266 277 232 245 263 289 306 314 313 313 315 317 312 313 316 315 312 303 293 286 273 264 258 253 253 250 250 247 238 234 233
225 201 195 232 264 211 301 303 292 275 259 270 233 266 270 289 261 267 288 305 315 317 320 320 321 318 316 317 315 311 305 298 288 277 269 262 258 253 245 248 247 242 239 238
246 224 179 193 259 273 285 295 303 296 296 304 265 257 277 316 297 289 297 307 316 321 320 318 319 316 312 309 309 309 305 301 294 281 273 264 260 253 247 245 244 243 241 239
230 231 122 174 254 245 209 190 337 270 291 281 264 273 290 282 298 310 314 317 320 323 324 320 315 315 314 311 307 304 305 303 297 287 275 261 260 253 247 246 247 247 248 245
203 244 220 204 186 170 287 161 186 233 288 286 278 272 278 300 308 312 318 320 321 327 326 325 322 319 318 315 309 308 305 299 295 287 283 264 255 252 246 246 251 253 252 249
190 212 218 208 212 209 176 183 207 224 263 277 288 280 279 278 300 308 315 318 319 322 325 326 326 325 324 321 317 314 309 304 300 293 291 280 266 262 250 246 250 252 251 249
181 206 243 234 160 279 225 214 199 233 242 244 273 279 304 286 305 308 310 316 319 320 322 323 325 326 327 325 325 323 318 315 314 305 298 292 284 270 257 256 259 256 254 246
162 183 242 221 192 193 223 220 218 229 243 236 248 269 309 308 307 309 310 313 317 320 322 323 327 327 328 327 325 324 324 326 327 322 310 302 295 281 268 266 270 269 257 249
170 203 231 256 285 199 231 228 214 210 231 246 246 269 286 297 304 309 311 314 318 321 323 326 328 328 328 327 327 324 326 330 330 329 325 310 302 292 284 280 281 278 269 257
189 230 241 259 265 254 250 245 229 224 234 248 264 272 283 293 302 306 307 311 316 320 325 327 328 327 327 328 329 328 327 329 329 326 324 317 311 300 292 288 288 288 283 278
198 229 245 263 252 254 260 254 243 239 241 249 264 274 279 291 297 300 303 306 310 316 321 323 324 323 324 326 327 327 326 326 326 326 322 323 321 314 308 306 306 296 288 287
188 193 227 262 266 274 259 243 230 229 229 237 251 262 282 292 297 300 303 304 308 312 315 316 317 319 319 321 324 323 322 322 326 331 330 329 326 327 315 309 302 300 299 296
184 188 220 266 266 247 255 197 216 228 240 234 245 264 277 287 298 295 291 296 304 307 307 310 312 314 315 317 319 318 319 322 323 323 324 327 330 328 324 317 313 310 303 293
197 191 211 232 254 269 265 219 202 219 251 235 241 258 272 287 295 289 293 297 300 302 302 303 305 305 308 312 315 316 318 322 322 322 322 323 322 320 324 322 314 310 305 301
201 203 215 221 243 253 266 167 176 204 256 227 229 250 267 279 285 298 313 305 302 303 302 302 304 303 305 311 315 314 314 315 315 313 310 310 309 308 309 310 308 302 298 296
185 203 219 228 241 259 253 149 159 213 267 197 220 238 246 249 270 300 306 302 299 300 301 303 300 299 301 308 311 308 309 308 310 312 307 304 304 302 300 302 303 302 300 299
188 194 208 214 230 247 164 158 197 240 308 217 231 240 250 264 282 293 296 297 299 301 299 301 297 297 300 304 304 303 305 307 311 311 306 302 302 302 301 300 301 301 300 297
207 206 205 210 228 258 172 200 224 246 256 263 255 260 263 273 282 289 291 293 295 298 298 297 295 297 300 302 301 298 303 308 310 311 309 308 308 305 302 303 305 305 303 299
219 215 222 238 248 245 230 237 244 246 259 267 266 267 267 275 283 289 290 290 293 295 294 296 295 296 298 301 302 300 307 306 305 307 309 309 307 307 307 303 298 296 293 292
211 189 217 242 254 261 246 238 240 248 255 261 265 268 271 274 280 284 286 287 290 291 293 290 288 290 293 300 302 304 307 308 304 304 308 308 305 302 305 304 298 292 288 278
208 203 211 235 231 225 244 235 235 246 255 259 267 274 274 272 277 282 283 286 288 290 290 286 286 287 293 297 298 301 305 303 300 301 305 306 303 299 298 303 308 300 283 288
Height
1501 1499 1495 1496 1498 1497 1496 1494 1489 1485 1487 1487 1478 1472 1468 1468 1468 1467 1466 1465 1464 1463 1462 1460 1458 1456 1453 1451 1449 1447 1445 1444 1443 1443 1443 1443 1443 1444 1445 1446 1446 1448 1449 1451
1498 1497 1498 1499 1499 1498 1496 1492 1486 1482 1485 1485 1476 1469 1464 1464 1465 1465 1464 1463 1462 1460 1459 1457 1455 1452 1450 1447 1445 1443 1441 1440 1440 1439 1438 1438 1439 1439 1440 1441 1441 1442 1444 1445
1493 1496 1499 1498 1496 1494 1491 1489 1486 1485 1482 1480 1478 1460 1459 1461 1463 1463 1462 1461 1460 1459 1457 1454 1451 1449 1446 1443 1441 1439 1437 1436 1435 1435 1434 1434 1434 1434 1434 1435 1435 1437 1439 1440
1495 1498 1498 1496 1493 1493 1486 1489 1489 1487 1483 1472 1478 1460 1450 1456 1458 1459 1459 1458 1457 1456 1454 1452 1448 1445 1443 1440 1437 1435 1433 1432 1431 1430 1429 1429 1428 1428 1429 1430 1431 1433 1434 1436
1493 1496 1495 1493 1492 1493 1488 1490 1489 1486 1483 1479 1472 1470 1446 1454 1453 1453 1455 1455 1455 1454 1452 1449 1445 1442 1439 1436 1433 1431 1428 1427 1426 1425 1425 1424 1424 1424 1425 1426 1426 1428 1429 1431
1495 1497 1496 1494 1494 1494 1492 1488 1486 1484 1480 1473 1469 1467 1446 1447 1449 1450 1452 1453 1452 1450 1448 1445 1442 1439 1435 1432 1429 1426 1424 1422 1421 1420 1419 1419 1419 1419 1419 1420 1420 1422 1423 1424
1490 1493 1495 1495 1491 1490 1489 1483 1473 1468 1465 1458 1469 1468 1451 1447 1450 1450 1451 1450 1449 1447 1445 1441 1438 1435 1431 1428 1424 1422 1419 1417 1416 1415 1413 1413 1413 1414 1414 1414 1415 1416 1417 1418
1485 1482 1491 1493 1491 1489 1488 1486 1480 1471 1459 1454 1465 1460 1447 1449 1450 1450 1449 1449 1447 1445 1442 1439 1435 1432 1428 1424 1420 1417 1414 1412 1411 1409 1408 1408 1408 1409 1409 1409 1410 1410 1411 1412
1484 1483 1492 1493 1494 1491 1487 1486 1489 1486 1483 1475 1456 1452 1447 1446 1447 1447 1447 1446 1443 1442 1439 1435 1432 1428 1424 1420 1417 1413 1410 1407 1405 1403 1403 1402 1403 1403 1403 1404 1405 1405 1406 1407
1490 1489 1489 1493 1494 1494 1491 1490 1489 1485 1477 1459 1449 1450 1444 1444 1445 1445 1445 1443 1441 1439 1436 1433 1429 1425 1421 1417 1414 1410 1407 1404 1401 1399 1397 1397 1398 1398 1399 1399 1400 1400 1401 1401
1491 1490 1488 1489 1487 1485 1490 1490 1487 1484 1482 1469 1453 1444 1443 1445 1445 1445 1444 1442 1440 1437 1433 1429 1425 1422 1418 1414 1410 1407 1404 1401 1398 1396 1394 1394 1394 1394 1394 1394 1395 1395 1396 1396
1490 1489 1483 1483 1488 1489 1486 1484 1484 1481 1480 1479 1466 1451 1443 1445 1445 1445 1443 1441 1438 1436 1432 1428 1424 1419 1415 1411 1407 1404 1401 1398 1395 1393 1392 1391 1391 1391 1390 1390 1390 1391 1391 1391
1489 1490 1480 1474 1485 1490 1487 1485 1484 1484 1482 1474 1465 1448 1443 1445 1445 1445 1443 1440 1437 1433 1430 1426 1421 1417 1413 1409 1405 1402 1398 1396 1393 1392 1390 1389 1388 1388 1387 1387 1386 1386 1386 1386
1486 1486 1479 1467 1465 1477 1482 1482 1483 1483 1476 1465 1459 1446 1441 1443 1443 1442 1440 1437 1434 1431 1428 1424 1419 1415 1411 1407 1404 1400 1397 1394 1391 1389 1388 1386 1385 1384 1384 1383 1382 1382 1382 1382
1484 1481 1479 1475 1475 1476 1475 1474 1476 1476 1468 1462 1448 1446 1441 1440 1441 1440 1438 1435 1432 1429 1426 1422 1418 1413 1409 1405 1402 1398 1395 1392 1390 1388 1386 1384 1383 1382 1381 1380 1379 1379 1379 1379
1481 1480 1479 1474 1473 1473 1471 1465 1465 1465 1464 1458 1452 1446 1440 1441 1440 1438 1435 1433 1430 1427 1424 1420 1416 1412 1408 1404 1400 1397 1394 1391 1389 1386 1384 1382 1381 1379 1378 1377 1377 1376 1376 1376
1477 1479 1477 1465 1469 1470 1458 1450 1453 1454 1451 1451 1447 1439 1437 1437 1436 1435 1433 1431 1428 1425 1422 1418 1414 1410 1406 1403 1399 1396 1393 1390 1388 1386 1384 1381 1379 1378 1376 1375 1375 1374 1373 1373
1472 1475 1474 1467 1468 1459 1438 1442 1444 1445 1443 1444 1441 1437 1436 1435 1434 1432 1430 1428 1425 1423 1419 1416 1412 1408 1404 1401 1398 1395 1391 1389 1387 1385 1383 1380 1378 1376 1375 1373 1372 1371 1370 1370
1466 1469 1469 1466 1458 1441 1435 1439 1441 1442 1437 1435 1436 1434 1434 1433 1431 1427 1426 1424 1423 1420 1417 1414 1410 1407 1403 1399 1396 1393 1390 1388 1385 1383 1381 1379 1377 1375 1373 1371 1370 1369 1368 1367
1464 1465 1466 1462 1455 1438 1427 1435 1437 1439 1433 1429 1431 1430 1431 1431 1428 1423 1423 1421 1419 1417 1414 1411 1407 1404 1401 1398 1395 1392 1389 1386 1384 1381 1379 1377 1375 1373 1371 1369 1368 1366 1365 1364
1460 1461 1459 1454 1448 1431 1427 1434 1437 1435 1424 1425 1426 1427 1428 1428 1426 1424 1420 1418 1416 1413 1410 1408 1405 1402 1399 1396 1393 1390 1388 1385 1382 1380 1377 1375 1373 1371 1369 1367 1365 1364 1362 1361
1441 1444 1446 1445 1443 1429 1426 1431 1429 1423 1422 1423 1423 1424 1424 1424 1422 1420 1417 1415 1412 1410 1407 1404 1402 1399 1397 1394 1391 1388 1386 1384 1381 1378 1375 1373 1371 1368 1366 1365 1363 1361 1360 1358
1428 1426 1425 1426 1419 1417 1420 1420 1420 1420 1421 1421 1421 1421 1421 1420 1418 1416 1414 1411 1408 1406 1403 1401 1398 1396 1393 1391 1389 1386 1384 1381 1378 1376 1373 1371 1368 1366 1364 1363 1361 1359 1358 1356
1421 1423 1422 1420 1414 1415 1416 1416 1417 1417 1418 1417 1418 1418 1417 1415 1414 1412 1409 1407 1405 1402 1400 1397 1395 1392 1390 1388 1386 1384 1381 1379 1376 1373 1371 1369 1366 1364 1362 1360 1358 1357 1355 1354
1409 1417 1416 1413 1410 1412 1411 1412 1412 1413 1413 1413 1413 1413 1412 1411 1409 1407 1405 1403 1401 1398 1396 1394 1391 1389 1387 1385 1382 1380 1378 1376 1373 1370 1368 1366 1364 1362 1360 1358 1356 1354 1353 1352
1404 1406 1406 1402 1402 1405 1405 1406 1408 1409 1409 1409 1409 1408 1407 1406 1404 1403 1401 1399 1396 1394 1392 1390 1387 1385 1383 1381 1379 1377 1375 1372 1370 1367 1365 1363 1361 1359 1357 1355 1353 1351 1351 1349